CZ-7 R/B

Last updated on Thu Nov 21 2024 00:02:07 GMT+0000 (Coordinated Universal Time)

1 61984U 24211B 24324.17490961 .01153689 75576-5 57150-3 0 9999 2 61984 41.4502 216.3500 0083210 194.8309 295.0360 16.11826080 560

Satellite not in orbit